Regional Weather Roundup
Issued by NWS Northern Indiana

Home | Current Version | Previous Version | Graphics & Text | Print | Product List | Glossary On
Versions: 1 2 3 4 5 6 7 8 9 10 11 12 13 14 15 16 17 18 19 20 21 22 23 24 25 26 27 28 29 30 31 32 33 34 35 36 37 38 39 40 41 42 43 44 45 46 47 48 49 50
000
ASUS43 KIWX 271000
RWRIWX

KIWX WEATHER ROUNDUP
NATIONAL WEATHER SERVICE NORTHERN INDIANA
600 AM EDT TUE SEP 27 2016

NOTE: "FAIR" INDICATES FEW OR NO CLOUDS BELOW 12,000 FEET WITH NO
SIGNIFICANT WEATHER AND/OR OBSTRUCTIONS TO VISIBILITY.

* THESE STATIONS ARE NOT UNDER NWS QUALITY CONTROL. THEY ALSO MAY NOT
  REPORT WEATHER SUCH AS PRECIPITATION OR FOG.

INZ001>027-271100-
NORTHERN INDIANA

CITY           SKY/WX    TMP DP  RH WIND       PRES   REMARKS
GARY*          CLEAR     55  43  62 SW14      29.87F
KNOX*          CLEAR     48  25  40 SW8       29.88F
SOUTH BEND     CLEAR     48  41  76 SW13      29.86F
GOSHEN         CLEAR     49  39  68 SW12      29.86F
MONTICELLO*    CLEAR     49  38  68 S8        29.91F
WARSAW*        CLEAR     52  36  54 SW9       29.88F
ANGOLA*          N/A     48  37  66 SW6       29.85F
FORT WAYNE     CLEAR     47  40  76 SW9       29.90F
PERU/GRISSOM   CLEAR     52  41  67 SW13      29.89F

$$
INZ028>050-271100-
CENTRAL INDIANA

CITY           SKY/WX    TMP DP  RH WIND       PRES   REMARKS
LAFAYETTE      CLEAR     47  43  86 SW5       29.93F
MUNCIE*        CLEAR     53  41  63 SW8       29.94F
INDIANAPOLIS   CLEAR     48  43  82 SW6       29.96F

$$
MIZ043>046-050>051-056>058-064>065-071>073-077>080-271100-
SOUTHWEST LOWER MICHIGAN

CITY           SKY/WX    TMP DP  RH WIND       PRES   REMARKS
BATTLE CREEK   CLEAR     50  41  71 SW14      29.80F
BENTON HARBOR  CLEAR     63  43  48 W21G26    29.80F
COLDWATER*     CLEAR     51  37  58 SW8       29.83F
HILLSDALE*     CLEAR     48  37  66 S7        29.83F
HOLLAND        CLEAR     62  42  47 W17G23    29.76F
GRAND RAPIDS   CLEAR     52  41  66 SW9       29.76F
KALAMAZOO      CLEAR     52  39  61 SW12      29.81F
STURGIS*       CLEAR     47  40  75 SW5       29.83F
THREE RIVERS*  FAIR      49  41  73 SW7       29.83F

$$
OHZ001>008-015>018-024>025-271100-
NORTHWEST OHIO

CITY           SKY/WX    TMP DP  RH WIND       PRES   REMARKS
DEFIANCE       CLEAR     50  39  66 S7        29.88F
FINDLAY        CLEAR     50  39  66 S10       29.90F
TOLEDO EXPRESS CLEAR     50  41  71 SW8       29.87F
TOLEDO METCALF CLEAR     51  42  71 SW7       29.88F
LIMA           CLEAR     48  42  80 S9        29.93S

$$
AND FOR LAKE MICHIGAN COASTAL AND OPEN LAKE BUOY OBSERVATIONS

STATION/POSITION TEMP    WIND        PRES    VSBY  WAVE
                 AIR SEA DIR/SP/G                  HT/PER
                 (F)     (DEG/KT/KT) (MB)    (MI)  (FT/S)
CALUMET HARBOR    55     220/  8/ 11 1010.8F
MICHIGAN CITY     54     190/ 14/ 16   N/A
BURNS HARBOR      57     230/ 16/ 19 1011.5F
SAINT JOSEPH      64     240/ 19/ 26 1009.8
SOUTH LAKE BUOY   63 70  250/ 23/ 27 1007.8          5/ 6
4 MI NW BRIDGMAN  65 66  250/ 19/ 25 1009.7F         7/ 6
MICHIGAN CITY     60 67  240/ 17/ 23   N/A           4/ 4

$$
&&




USA.gov is the U.S. government's official web portal to all federal, state and local government web resources and services.